RH
33 33 33 31 30 28 26 25 24 23 21 19 17 16 16 16 17 18 18 18 19 19 16 12 7 5 4 4 4 5 5 5 5 5 4 4 4 4 4 5 5 5 5 6 6 6 6 7 6 6 6 6 8 7 8 8 7 8 13 16 15 18 16 13 13 11 12 13 12 11 11 12 12 12 12 11 12 11 11 11 11 11 12 11 11 11 11 11
37 37 36 34 33 32 30 28 26 26 25 24 22 20 18 17 17 17 18 18 18 19 20 18 14 8 5 4 4 4 5 6 5 5 4 4 4 4 4 4 4 5 5 6 6 6 6 6 6 6 6 6 7 7 7 7 6 8 12 14 15 16 14 12 11 9 9 11 11 11 10 11 11 11 11 12 11 11 13 12 11 11 12 12 12 12 12 12
38 38 38 36 36 35 35 32 30 28 27 27 25 25 23 21 20 19 20 20 20 20 20 20 20 15 9 5 4 4 4 5 6 5 5 4 4 4 4 4 4 5 5 6 6 6 7 7 7 7 7 7 7 7 7 7 7 7 9 12 13 12 11 9 9 8 8 9 10 11 10 10 10 11 12 12 12 13 14 12 12 12 11 12 12 12 12 13
35 35 36 36 36 36 37 36 34 32 30 29 28 27 27 27 25 23 22 22 23 24 24 23 23 22 17 9 4 4 4 5 7 6 5 4 4 4 4 4 4 5 5 6 6 7 7 7 8 7 7 7 7 6 7 6 7 8 10 11 10 8 9 8 8 8 8 8 9 10 11 11 11 11 12 12 12 14 13 11 11 11 11 12 12 13 13 13
31 31 31 33 34 34 35 35 35 35 34 32 32 31 30 31 29 27 25 23 23 23 25 26 26 25 24 18 9 4 4 8 9 6 5 4 4 4 4 5 4 5 5 6 7 7 7 7 7 7 7 8 7 7 7 6 7 8 9 9 8 8 9 9 8 9 8 8 10 11 11 11 11 12 12 12 12 13 11 11 11 12 12 12 13 13 13 14
28 29 29 30 30 32 32 33 33 33 33 33 33 33 32 31 31 30 28 25 23 22 22 23 25 26 27 27 21 12 7 9 8 5 5 4 4 4 4 5 5 5 6 7 7 7 7 7 7 8 7 8 8 9 8 7 7 9 9 8 8 8 9 10 9 9 9 9 10 12 12 12 12 12 12 12 12 11 10 11 12 12 13 12 13 13 14 14
26 27 27 28 28 29 30 32 32 32 32 33 32 32 31 31 30 30 29 27 25 23 23 21 22 23 24 28 29 24 15 9 5 4 5 4 4 5 5 5 5 5 6 7 7 8 7 7 7 7 8 10 9 9 9 8 8 11 11 8 9 9 10 10 10 9 10 10 11 11 12 12 12 12 12 11 11 11 11 12 12 13 13 13 13 14 14 14
23 25 23 24 26 27 29 30 31 31 32 32 31 31 30 29 28 28 28 27 26 24 24 23 21 21 22 25 29 30 24 13 5 5 5 5 5 5 5 5 5 6 6 7 7 8 7 7 8 7 9 11 10 11 10 9 11 14 12 9 9 10 10 10 10 10 10 10 11 11 11 11 11 11 11 11 11 11 11 12 12 12 13 13 14 14 15 15
18 20 20 20 23 25 26 26 28 29 29 29 30 30 30 29 28 26 25 25 25 24 23 23 22 20 20 22 27 29 28 21 9 5 5 5 5 5 6 5 6 7 7 8 7 8 8 7 8 8 10 10 10 12 11 12 14 12 10 9 9 9 10 10 10 10 10 10 10 11 11 11 11 11 12 12 12 12 12 12 12 12 12 13 13 15 15 15
17 17 17 17 19 22 22 23 26 26 26 27 27 27 28 28 28 26 25 24 23 22 22 22 22 21 22 22 27 28 27 25 14 6 5 5 5 5 6 6 6 7 7 8 7 8 8 8 8 8 9 9 10 12 11 14 14 10 10 9 9 10 10 10 10 10 10 10 10 11 12 11 11 12 13 12 12 12 12 12 12 12 12 13 14 15 15 15
21 19 18 18 18 20 20 22 24 23 24 24 24 25 25 26 27 27 27 26 24 22 22 23 22 24 25 25 27 27 26 26 19 9 5 6 6 6 6 6 7 7 7 7 7 8 8 8 8 8 10 10 10 11 11 13 11 10 10 10 11 10 9 10 10 10 10 11 10 11 12 12 11 13 13 11 12 12 12 13 12 13 13 13 14 14 15 15
23 22 21 20 20 19 20 22 22 22 23 23 22 23 24 26 28 28 28 28 27 24 23 24 26 27 28 26 26 25 24 24 22 13 6 6 6 6 6 6 7 7 7 7 7 8 8 8 7 9 11 10 11 12 11 10 10 10 11 14 16 12 11 12 10 10 11 11 10 11 13 14 13 13 12 11 12 12 12 13 13 13 14 14 15 15 15 16
27 25 24 23 22 21 21 21 22 22 23 24 24 26 29 31 34 35 35 33 31 29 27 27 28 28 26 24 23 24 23 22 22 17 9 6 7 6 7 7 7 7 8 8 8 8 8 8 7 9 9 10 13 12 11 9 9 12 13 17 17 14 16 13 10 11 11 11 11 12 14 14 14 13 12 12 12 12 13 13 13 14 14 15 15 15 16 16
30 30 28 26 25 24 24 24 25 25 26 27 29 32 34 37 38 40 40 38 36 32 30 29 29 28 24 20 19 21 22 20 20 20 12 6 7 7 7 7 8 8 8 8 8 8 8 8 8 8 8 10 11 11 12 10 11 16 16 20 19 17 20 15 10 12 11 12 12 13 15 14 14 13 12 13 13 13 14 14 14 15 15 15 16 17 16 16
30 30 31 31 30 29 28 28 28 28 28 28 30 31 34 38 39 39 40 40 38 33 30 29 28 25 22 19 18 19 20 20 21 21 15 9 7 8 8 8 8 8 9 9 8 8 8 8 8 9 9 9 11 15 17 14 15 18 16 22 22 17 19 16 12 12 12 13 12 14 18 17 15 14 13 13 13 14 15 15 15 16 16 15 16 17 17 17
29 29 30 31 31 31 30 30 29 28 28 27 27 29 32 36 37 37 39 39 36 32 28 29 27 22 23 21 19 20 20 21 22 22 17 10 8 8 8 8 9 9 9 9 9 8 8 8 9 9 9 11 15 20 23 20 20 19 16 18 19 15 16 17 14 14 13 14 14 15 17 18 16 14 14 15 15 15 16 16 16 16 17 16 17 17 17 17
26 27 28 28 29 29 28 28 27 26 26 26 27 28 30 34 37 37 38 37 34 31 29 30 27 24 25 22 20 21 21 23 22 22 18 11 8 8 8 8 9 9 9 10 9 9 9 9 9 10 11 14 18 21 21 22 22 20 19 18 17 17 14 16 17 15 14 16 17 17 18 18 17 15 15 15 15 16 17 17 17 17 17 17 17 18 18 19
27 27 26 26 26 27 27 26 25 23 22 24 27 29 30 33 39 40 38 37 35 34 34 33 29 28 27 24 21 21 21 22 21 20 16 11 9 8 8 9 9 9 9 10 9 9 9 9 11 14 14 14 20 22 16 18 21 19 19 18 18 19 15 16 19 17 16 18 19 20 19 19 17 17 16 16 15 16 18 18 17 17 17 18 19 20 21 21
27 26 25 24 23 22 23 24 25 23 20 21 24 28 32 33 37 41 40 38 38 40 40 36 30 28 27 23 21 19 18 18 17 15 12 10 9 8 9 9 9 9 9 11 11 9 10 12 13 16 18 17 19 22 16 18 22 19 19 18 16 19 17 17 20 19 18 18 20 21 20 19 17 17 18 16 16 17 18 18 17 18 19 19 20 22 23 23
25 24 24 24 23 21 22 23 23 23 22 22 22 27 32 31 35 42 40 39 40 41 40 36 31 26 22 20 19 16 13 12 12 11 10 9 8 9 9 9 10 10 11 13 12 11 10 13 16 19 24 23 18 19 18 17 18 16 17 18 18 20 19 19 21 21 18 18 22 22 21 21 17 17 19 17 17 18 18 18 19 20 21 21 22 23 24 26
23 21 21 22 23 23 25 25 24 23 22 23 24 27 30 30 35 39 39 42 42 39 37 33 31 25 20 19 21 19 14 10 10 10 10 9 9 10 10 11 11 11 14 14 13 15 13 14 21 23 23 20 17 17 16 15 16 16 17 17 19 20 20 21 22 22 20 19 23 24 21 20 18 18 19 18 19 20 19 20 21 23 23 23 24 26 27 29
22 22 21 21 23 26 27 26 25 23 21 23 25 28 31 30 31 31 35 44 44 40 37 32 29 24 19 20 22 21 18 14 13 13 11 10 11 11 11 12 13 14 16 14 15 19 18 20 23 20 16 17 17 17 15 16 17 16 18 17 19 21 21 22 23 23 22 20 22 24 21 19 19 19 19 20 22 22 22 22 23 24 25 26 27 29 30 31
27 28 26 24 26 28 29 28 26 23 23 25 27 30 32 31 31 29 32 45 48 43 38 32 28 23 19 20 18 15 15 15 14 14 12 11 11 10 11 13 15 15 17 18 18 18 18 20 20 16 15 17 17 17 17 17 18 18 18 18 20 22 21 22 25 24 24 22 22 23 22 22 22 21 22 22 23 24 23 23 25 26 28 29 30 31 33 35
31 29 26 26 27 29 31 31 29 27 25 27 30 33 33 33 33 29 30 44 49 42 36 33 29 23 19 18 14 11 11 11 11 11 11 10 10 11 12 14 16 17 20 22 19 16 17 17 16 15 17 17 17 19 18 16 20 23 20 18 22 22 19 22 26 24 24 26 24 23 25 26 23 23 24 24 24 25 24 25 26 27 29 31 33 35 36 38
27 26 26 27 28 30 32 31 30 30 29 30 33 34 35 35 33 29 33 44 46 40 37 35 30 25 20 16 13 11 11 12 12 11 11 10 10 12 16 15 16 19 21 20 16 16 18 16 16 18 18 18 17 18 20 18 19 22 20 20 22 21 20 23 26 25 24 26 25 23 28 32 27 23 25 25 26 26 26 27 28 29 31 33 36 37 39 41
26 26 27 29 30 31 32 31 31 33 34 34 34 34 36 35 31 30 37 46 45 42 40 36 29 25 21 17 14 12 13 16 14 12 11 12 12 13 16 17 15 17 18 16 15 17 19 18 19 20 19 18 18 18 21 21 19 19 21 22 22 21 21 23 24 24 24 26 24 23 30 36 31 26 27 27 28 29 29 30 30 31 34 35 38 39 41 42
28 28 28 30 30 30 31 31 32 36 37 36 35 35 33 31 29 29 37 45 44 40 40 36 29 25 21 18 16 14 15 17 15 15 14 13 15 15 17 20 18 19 19 16 15 18 20 18 18 19 19 19 20 19 20 21 21 21 22 22 22 21 21 23 23 24 27 27 26 26 29 34 33 31 30 29 30 32 32 33 33 34 36 37 39 41 41 43
30 28 26 26 27 29 29 28 30 36 40 39 36 32 30 28 26 30 39 43 39 37 38 37 31 27 24 21 20 19 17 18 18 20 19 17 19 18 19 22 20 20 19 14 15 19 20 19 19 19 19 20 21 19 19 19 19 22 25 24 21 21 22 24 24 27 30 28 29 31 30 34 37 34 32 32 33 35 35 36 37 37 38 39 40 41 42 43
29 26 22 22 26 29 29 26 28 33 38 40 36 30 30 27 25 35 46 43 38 37 36 36 33 30 28 25 24 23 22 23 23 22 21 19 17 16 17 19 18 18 18 16 17 21 20 19 21 20 18 20 20 19 20 20 18 22 25 24 24 25 24 23 26 29 31 31 33 34 32 35 39 35 33 36 36 37 38 38 40 39 39 40 41 42 43 44
26 23 19 21 25 29 29 28 28 29 32 35 32 29 32 35 36 43 49 43 39 40 37 37 37 33 32 31 30 28 25 25 23 19 19 18 14 13 15 16 17 20 22 21 20 22 22 19 19 21 20 20 19 18 20 21 20 21 22 24 27 29 27 27 31 30 32 38 37 33 34 36 39 38 35 38 40 40 40 40 41 40 40 41 42 43 45 46
23 21 19 20 23 27 29 28 27 28 29 32 32 30 34 45 50 49 48 44 43 42 38 37 36 33 31 29 26 25 23 21 20 17 17 18 18 17 18 17 17 23 28 25 22 24 23 20 20 21 21 21 19 20 23 23 22 21 24 26 25 28 28 30 34 33 38 45 37 32 35 35 39 40 37 39 42 42 42 42 42 43 43 44 45 47 50 52
23 21 19 20 22 24 25 25 26 28 30 33 34 34 37 45 49 45 43 40 37 35 32 29 28 27 26 24 23 23 22 20 20 20 19 20 22 20 19 19 17 21 25 23 20 22 23 23 24 22 21 21 22 22 25 27 25 25 28 26 27 33 32 32 37 37 40 44 36 32 34 34 37 38 38 41 42 42 43 42 43 45 47 48 50 54 57 58
23 21 22 23 24 24 23 24 25 27 30 31 31 35 37 37 36 33 32 29 24 24 25 23 24 25 24 23 24 24 23 21 22 23 20 21 23 20 20 22 21 19 19 19 19 20 23 25 25 24 22 22 22 21 22 24 24 25 25 25 32 37 34 37 42 39 39 40 34 31 33 35 36 36 37 41 40 41 43 44 47 50 52 55 58 61 63 64
24 22 23 24 24 23 22 23 23 23 25 23 26 34 35 31 28 26 25 25 23 23 24 25 26 27 25 23 24 24 21 20 21 22 22 23 23 21 21 23 24 21 19 20 20 19 21 22 22 23 22 22 24 22 21 23 25 26 26 27 33 35 34 39 42 41 41 41 37 33 33 38 38 36 38 40 41 44 47 50 53 55 58 62 64 66 67 67
28 25 24 23 21 20 19 18 18 19 17 17 24 31 29 28 27 26 26 27 26 25 25 27 25 25 26 24 24 22 16 16 19 19 20 22 21 21 21 21 22 22 21 21 20 20 21 22 23 24 22 22 25 25 25 25 26 27 27 29 33 36 36 39 41 40 39 42 43 38 36 38 37 38 43 46 49 52 54 56 58 61 64 66 68 69 68 67
31 27 24 21 18 16 15 12 12 12 11 17 27 26 22 23 22 23 25 24 24 22 22 25 23 20 22 21 20 19 15 16 19 18 18 20 21 21 22 21 22 22 21 21 22 22 22 23 25 25 23 23 24 26 26 26 27 28 29 31 33 34 34 35 39 39 37 42 43 37 37 40 42 47 51 54 58 61 61 63 65 67 68 69 71 69 65 61
32 28 24 19 14 13 12 10 10 10 10 19 26 23 21 22 21 25 26 21 21 20 19 20 19 17 18 19 19 18 16 17 19 17 16 19 21 21 23 24 22 21 21 21 23 24 22 24 26 25 25 25 24 25 27 26 26 28 29 32 32 32 34 36 40 43 46 49 44 38 43 49 54 57 57 59 64 66 67 69 69 70 70 70 67 62 57 54
29 25 20 16 13 12 11 10 11 10 14 24 25 21 23 24 22 25 25 21 21 21 19 18 17 17 16 17 20 20 18 18 20 19 17 20 21 21 23 24 22 22 21 21 24 25 23 24 26 26 27 28 25 25 28 28 27 28 28 30 31 33 38 40 41 45 52 56 54 50 51 56 62 64 62 64 67 68 70 71 70 70 67 62 58 54 53 53
23 19 17 14 13 12 11 11 11 13 20 27 25 21 24 26 24 21 20 23 22 20 19 18 17 19 19 18 21 21 20 18 19 19 18 18 21 21 22 23 23 23 23 22 25 27 26 25 26 27 27 27 26 26 28 29 28 27 28 30 33 35 39 40 41 47 54 61 65 64 60 61 64 66 66 68 69 70 71 70 68 64 58 54 52 52 53 54
19 16 17 15 13 13 12 12 14 18 23 25 22 22 24 25 24 20 18 22 23 20 20 21 20 21 22 22 21 20 20 20 19 20 19 19 21 23 24 27 29 28 25 25 26 28 29 27 28 29 27 26 26 26 28 30 30 31 32 33 34 35 40 44 46 51 58 63 71 73 68 63 61 62 66 68 70 71 69 65 60 54 52 53 53 54 56 58
17 17 18 15 14 14 12 14 15 19 25 23 22 26 27 25 24 22 20 21 23 20 20 22 22 21 22 23 22 20 20 21 21 20 20 21 22 24 28 31 33 32 28 26 28 29 29 29 29 29 26 25 26 25 26 29 31 33 34 36 39 42 48 53 57 60 61 64 71 76 73 66 61 63 67 68 69 66 60 56 53 52 53 56 57 59 60 58
18 19 18 16 16 13 13 18 18 19 24 23 21 25 27 25 23 23 22 23 24 22 21 23 24 22 22 23 22 22 21 22 23 22 22 24 24 27 31 32 32 32 30 29 29 28 28 28 28 28 26 24 24 24 25 28 30 33 35 39 45 51 54 56 60 64 64 64 68 73 76 72 67 66 67 65 62 56 52 52 52 54 56 58 60 59 56 54
19 18 17 17 16 13 15 21 23 23 24 22 21 23 24 25 24 23 24 24 24 23 22 23 23 22 22 22 22 23 22 22 24 24 24 26 28 30 32 31 31 32 32 31 30 28 27 27 28 29 27 25 24 25 27 32 36 38 42 46 48 52 57 60 62 63 64 66 66 71 78 74 65 62 60 56 53 50 50 52 53 55 58 59 57 52 49 48
20 18 18 17 15 14 16 20 22 24 22 22 24 24 22 24 25 25 26 24 23 23 23 24 23 22 23 23 24 25 23 22 24 25 24 26 29 30 30 31 31 32 32 31 30 27 26 27 29 30 32 34 37 39 40 44 46 44 46 51 54 57 61 62 62 65 68 69 69 73 76 68 57 54 52 49 49 50 52 53 54 55 55 52 47 45 45 44
22 20 20 18 14 13 16 18 19 21 22 22 24 23 23 24 23 23 25 24 23 22 23 24 23 23 24 25 26 28 27 25 25 27 27 27 30 33 32 31 32 31 29 27 26 25 26 28 29 34 42 47 49 50 49 50 49 47 48 52 56 60 61 62 66 72 75 72 67 65 62 56 51 51 51 50 51 51 52 52 51 49 46 43 42 44 44 40
23 22 21 18 14 12 13 14 15 19 22 22 21 21 22 23 22 21 23 25 24 22 23 24 24 25 26 27 29 31 31 28 26 28 29 28 31 33 32 30 29 27 24 23 24 27 31 37 40 44 48 49 48 48 48 48 49 50 52 55 59 63 65 68 73 73 70 66 59 52 49 48 49 51 52 52 51 51 50 47 44 42 40 41 44 45 41 38
23 22 18 15 14 14 15 15 16 18 20 19 19 20 20 22 24 23 23 25 24 23 24 26 26 27 28 30 31 31 31 29 27 28 28 26 28 29 28 27 27 25 25 27 31 36 41 45 47 47 47 47 48 47 48 50 51 52 55 59 64 68 67 66 65 60 56 56 53 47 46 49 50 53 56 54 52 50 46 44 43 42 43 45 46 43 40 38
15 15 13 12 15 18 17 17 18 20 21 20 20 21 21 24 24 23 23 25 24 25 26 27 28 30 30 30 29 28 29 28 27 28 25 22 23 25 26 28 30 30 32 34 35 39 43 46 47 46 46 48 49 49 49 52 55 56 58 60 64 67 62 55 52 50 48 51 51 48 49 54 56 57 57 54 51 48 45 44 45 43 44 45 44 40 38 38
10 12 12 13 16 17 16 16 18 22 24 22 22 24 24 25 24 24 24 26 28 29 26 26 29 30 30 28 26 27 27 25 24 26 24 22 24 26 28 30 32 33 35 36 36 38 43 49 51 49 49 50 50 51 54 56 57 58 57 57 58 57 52 48 48 49 49 50 52 52 54 58 60 59 54 50 47 45 44 44 42 40 40 42 41 40 40 42
10 12 12 14 17 16 15 16 18 23 25 23 23 25 25 26 27 27 26 26 28 29 26 26 29 29 28 26 25 26 28 27 26 27 26 27 29 30 30 32 34 36 37 39 40 41 43 51 54 51 51 53 51 51 53 55 55 53 51 50 48 47 47 48 49 50 52 55 57 58 58 59 57 53 48 45 44 43 42 42 39 39 42 43 41 40 41 42
11 12 12 15 19 18 17 18 19 24 27 25 26 27 27 29 28 27 27 25 25 27 28 27 29 29 28 27 28 29 30 30 30 29 29 30 32 32 33 34 37 40 42 44 45 46 46 51 54 52 52 53 50 48 51 52 50 48 46 45 44 45 48 50 51 53 56 59 60 60 61 59 54 47 43 43 44 43 42 42 42 42 43 43 41 40 38 37
12 13 13 15 19 20 19 20 22 24 24 25 27 27 26 26 25 23 24 24 24 26 26 26 27 29 30 29 30 30 29 28 28 29 30 32 34 36 37 38 39 42 46 48 49 49 49 50 52 53 54 53 50 49 50 46 43 45 46 45 47 49 51 53 55 57 58 59 60 62 61 56 49 44 41 41 41 44 46 46 44 42 42 42 43 41 37 35